| time (UTC) | temp F | wind direction | speed MPH | gust MPH | rain 1hr in | rain 24hr in | rain mn in | humidity % | barometer mb |
| 20260508170019 | 54 | 238 | 0.0 | 3.0 | 0.00 | 0.00 | 0.00 | 88 | 1026.0 |
| 20260508164518 | 54 | 219 | 0.0 | 4.0 | 0.00 | 0.00 | 0.00 | 88 | 1025.8 |
| 20260508163017 | 54 | 275 | 0.0 | 3.0 | 0.00 | 0.00 | 0.00 | 88 | 1025.8 |
| 20260508161516 | 53 | 269 | 0.0 | 2.0 | 0.00 | 0.00 | 0.00 | 88 | 1025.8 |
| 20260508160018 | 53 | 263 | 0.0 | 0.0 | 0.00 | 0.00 | 0.00 | 88 | 1025.7 |
| 20260508154516 | 53 | 263 | 0.0 | 0.0 | 0.00 | 0.00 | 0.00 | 88 | 1025.8 |
| 20260508153016 | 53 | 263 | 0.0 | 3.0 | 0.00 | 0.00 | 0.00 | 88 | 1025.7 |
| 20260508151514 | 53 | 278 | 0.0 | 0.0 | 0.00 | 0.00 | 0.00 | 88 | 1025.7 |
| 20260508150019 | 53 | 275 | 0.0 | 0.0 | 0.00 | 0.00 | 0.00 | 87 | 1025.6 |
| 20260508144527 | 53 | 275 | 0.0 | 0.0 | 0.00 | 0.00 | 0.00 | 86 | 1025.7 |
| 20260508143010 | 54 | 275 | 0.0 | 0.0 | 0.00 | 0.00 | 0.00 | 86 | 1025.6 |
| 20260508141508 | 54 | 275 | 0.0 | 2.0 | 0.00 | 0.00 | 0.00 | 86 | 1025.6 |
| 20260508140010 | 54 | 244 | 0.0 | 0.0 | 0.00 | 0.00 | 0.00 | 87 | 1025.6 |
| 20260508134506 | 54 | 244 | 0.0 | 0.0 | 0.00 | 0.00 | 0.00 | 86 | 1025.6 |
| 20260508133006 | 54 | 244 | 0.0 | 0.0 | 0.00 | 0.00 | 0.00 | 85 | 1025.7 |
| 20260508131506 | 55 | 244 | 0.0 | 0.0 | 0.00 | 0.00 | 0.00 | 85 | 1025.7 |
| 20260508130005 | 55 | 244 | 0.0 | 3.0 | 0.00 | 0.00 | 0.00 | 85 | 1025.7 |
| 20260508124505 | 55 | 235 | 1.0 | 5.0 | 0.00 | 0.00 | 0.00 | 85 | 1025.9 |
| 20260508123005 | 55 | 213 | 1.0 | 3.0 | 0.00 | 0.00 | 0.00 | 85 | 1025.9 |
| 20260508121505 | 56 | 223 | 1.0 | 6.0 | 0.00 | 0.00 | 0.00 | 86 | 1026.0 |
| 20260508120004 | 56 | 216 | 0.0 | 3.0 | 0.00 | 0.00 | 0.00 | 86 | 1026.1 |
| 20260508114501 | 55 | 224 | 0.0 | 3.0 | 0.00 | 0.00 | 0.00 | 86 | 1025.9 |
| 20260508113001 | 55 | 234 | 0.0 | 3.0 | 0.00 | 0.00 | 0.00 | 86 | 1025.6 |
| 20260508111608 | 55 | 233 | 0.0 | 6.0 | 0.00 | 0.00 | 0.00 | 86 | 1025.6 |
| 20260508104558 | 55 | 261 | 0.0 | 2.0 | 0.00 | 0.00 | 0.00 | 86 | 1025.5 |
| 20260508103101 | 55 | 280 | 0.0 | 2.0 | 0.00 | 0.00 | 0.00 | 86 | 1025.4 |
| 20260508101615 | 55 | 269 | 0.0 | 2.0 | 0.00 | 0.00 | 0.00 | 85 | 1025.2 |
| 20260508100056 | 56 | 243 | 0.0 | 3.0 | 0.00 | 0.00 | 0.00 | 85 | 1025.2 |
| 20260508094555 | 56 | 246 | 0.0 | 4.0 | 0.00 | 0.00 | 0.00 | 85 | 1025.0 |
| 20260508093056 | 56 | 233 | 0.0 | 5.0 | 0.00 | 0.00 | 0.00 | 85 | 1025.1 |
| 20260508091606 | 56 | 269 | 0.0 | 3.0 | 0.00 | 0.00 | 0.00 | 85 | 1025.0 |
| 20260508090108 | 56 | 260 | 0.0 | 3.0 | 0.00 | 0.00 | 0.00 | 85 | 1024.9 |
| 20260508084553 | 56 | 244 | 1.0 | 4.0 | 0.00 | 0.00 | 0.00 | 84 | 1024.9 |
| 20260508083051 | 56 | 206 | 0.0 | 7.0 | 0.00 | 0.00 | 0.00 | 84 | 1024.7 |
| 20260508081558 | 56 | 195 | 3.0 | 9.0 | 0.00 | 0.00 | 0.00 | 83 | 1024.6 |
| 20260508080048 | 56 | 223 | 2.0 | 5.0 | 0.00 | 0.00 | 0.00 | 82 | 1024.5 |
| 20260508074547 | 57 | 230 | 1.0 | 9.0 | 0.00 | 0.00 | 0.00 | 81 | 1024.0 |
| 20260508073052 | 57 | 222 | 1.0 | 8.0 | 0.00 | 0.00 | 0.00 | 80 | 1024.1 |
| 20260508071554 | 58 | 247 | 1.0 | 5.0 | 0.00 | 0.00 | 0.00 | 80 | 1023.9 |
| 20260508070046 | 59 | 180 | 2.0 | 6.0 | 0.00 | 0.00 | 0.00 | 77 | 1023.9 |
| 20260508064543 | 59 | 242 | 2.0 | 7.0 | 0.00 | 0.00 | 0.00 | 76 | 1023.6 |
| 20260508063043 | 59 | 197 | 5.0 | 11.0 | 0.00 | 0.00 | 0.00 | 75 | 1023.6 |
| 20260508061541 | 59 | 237 | 2.0 | 7.0 | 0.00 | 0.00 | 0.00 | 79 | 1023.4 |
| 20260508060041 | 59 | 193 | 2.0 | 7.0 | 0.00 | 0.00 | 0.00 | 78 | 1023.5 |
| 20260508054545 | 59 | 243 | 1.0 | 7.0 | 0.00 | 0.00 | 0.00 | 77 | 1023.5 |
| 20260508053101 | 60 | 214 | 6.0 | 11.0 | 0.00 | 0.00 | 0.00 | 73 | 1023.4 |
| 20260508051541 | 60 | 224 | 4.0 | 13.0 | 0.00 | 0.00 | 0.00 | 69 | 1023.2 |
| 20260508050041 | 61 | 250 | 3.0 | 9.0 | 0.00 | 0.00 | 0.00 | 69 | 1023.2 |
| 20260508044539 | 61 | 216 | 5.0 | 13.0 | 0.00 | 0.00 | 0.00 | 67 | 1023.0 |
| 20260508043038 | 61 | 263 | 6.0 | 13.0 | 0.00 | 0.00 | 0.00 | 67 | 1023.1 |
| 20260508041603 | 59 | 229 | 6.0 | 16.0 | 0.00 | 0.00 | 0.00 | 70 | 1023.1 |
| 20260508040043 | 60 | 268 | 9.0 | 17.0 | 0.00 | 0.00 | 0.00 | 72 | 1023.2 |
| 20260508034537 | 60 | 234 | 5.0 | 14.0 | 0.00 | 0.00 | 0.00 | 72 | 1023.0 |
| 20260508033035 | 61 | 254 | 6.0 | 14.0 | 0.00 | 0.00 | 0.00 | 71 | 1022.9 |
| 20260508031537 | 61 | 214 | 5.0 | 15.0 | 0.00 | 0.00 | 0.00 | 71 | 1022.8 |
| 20260508030036 | 60 | 233 | 7.0 | 14.0 | 0.00 | 0.00 | 0.00 | 73 | 1022.7 |
| 20260508024534 | 60 | 248 | 5.0 | 16.0 | 0.00 | 0.00 | 0.00 | 73 | 1023.1 |
| 20260508023034 | 60 | 233 | 5.0 | 19.0 | 0.00 | 0.00 | 0.00 | 72 | 1023.0 |
| 20260508021534 | 60 | 207 | 6.0 | 15.0 | 0.00 | 0.00 | 0.00 | 74 | 1023.0 |
| 20260508020039 | 60 | 227 | 6.0 | 12.0 | 0.00 | 0.00 | 0.00 | 75 | 1023.2 |
| 20260508014528 | 60 | 244 | 6.0 | 18.0 | 0.00 | 0.00 | 0.00 | 76 | 1023.4 |
| 20260508013025 | 59 | 222 | 5.0 | 10.0 | 0.00 | 0.00 | 0.00 | 82 | 1023.2 |
| 20260508011524 | 58 | 227 | 0.0 | 3.0 | 0.00 | 0.00 | 0.00 | 86 | 1023.3 |
| 20260508010022 | 59 | 229 | 0.0 | 1.0 | 0.00 | 0.00 | 0.00 | 86 | 1023.2 |
| 20260508004521 | 58 | 275 | 0.0 | 1.0 | 0.00 | 0.00 | 0.00 | 87 | 1023.0 |
| 20260508003019 | 59 | 267 | 0.0 | 0.0 | 0.00 | 0.00 | 0.00 | 87 | 1022.8 |
| 20260508001516 | 58 | 244 | 0.0 | 0.0 | 0.00 | 0.00 | 0.00 | 90 | 1022.6 |
| 20260508000015 | 57 | 289 | 0.0 | 0.0 | 0.00 | 0.00 | 0.00 | 91 | 1022.6 |
| 20260507234514 | 57 | 268 | 0.0 | 0.0 | 0.00 | 0.00 | 0.00 | 92 | 1022.4 |
| 20260507233028 | 56 | 271 | 0.0 | 0.0 | 0.00 | 0.00 | 0.00 | 92 | 1022.6 |
| 20260507231511 | 56 | 300 | 0.0 | 0.0 | 0.00 | 0.00 | 0.00 | 92 | 1022.5 |
| 20260507230010 | 56 | 262 | 0.0 | 0.0 | 0.00 | 0.00 | 0.00 | 92 | 1022.4 |
| 20260507224509 | 56 | 273 | 0.0 | 0.0 | 0.00 | 0.00 | 0.00 | 93 | 1022.2 |
| 20260507223007 | 55 | 280 | 0.0 | 0.0 | 0.00 | 0.00 | 0.00 | 93 | 1022.0 |
| 20260507221505 | 54 | 232 | 0.0 | 0.0 | 0.00 | 0.00 | 0.00 | 92 | 1021.9 |
| 20260507220003 | 54 | 232 | 0.0 | 0.0 | 0.00 | 0.00 | 0.00 | 93 | 1021.8 |
| 20260507214500 | 54 | 249 | 0.0 | 0.0 | 0.00 | 0.00 | 0.00 | 93 | 1021.5 |
| 20260507213106 | 54 | 243 | 0.0 | 0.0 | 0.00 | 0.00 | 0.00 | 93 | 1021.2 |
| 20260507211559 | 55 | 220 | 0.0 | 0.0 | 0.00 | 0.00 | 0.00 | 93 | 1021.2 |
| 20260507210104 | 55 | 229 | 0.0 | 0.0 | 0.00 | 0.00 | 0.00 | 93 | 1020.9 |
| 20260507204558 | 55 | 269 | 0.0 | 0.0 | 0.00 | 0.00 | 0.00 | 93 | 1020.8 |
| 20260507203058 | 55 | 221 | 0.0 | 0.0 | 0.00 | 0.00 | 0.00 | 93 | 1020.5 |
| 20260507201557 | 55 | 246 | 0.0 | 0.0 | 0.00 | 0.00 | 0.00 | 93 | 1020.7 |
| 20260507200057 | 55 | 245 | 0.0 | 0.0 | 0.00 | 0.00 | 0.00 | 93 | 1020.9 |
| 20260507194618 | 55 | 225 | 0.0 | 1.0 | 0.00 | 0.00 | 0.00 | 92 | 1020.6 |
| 20260507193055 | 55 | 236 | 0.0 | 1.0 | 0.00 | 0.00 | 0.00 | 92 | 1020.3 |
| 20260507191553 | 55 | 248 | 0.0 | 0.0 | 0.00 | 0.00 | 0.00 | 92 | 1020.3 |
| 20260507190054 | 55 | 257 | 0.0 | 0.0 | 0.00 | 0.00 | 0.00 | 92 | 1020.1 |
| 20260507184552 | 55 | 238 | 0.0 | 1.0 | 0.00 | 0.00 | 0.00 | 92 | 1020.0 |
| 20260507183051 | 55 | 304 | 0.0 | 1.0 | 0.00 | 0.00 | 0.00 | 91 | 1019.8 |
| 20260507181556 | 55 | 257 | 0.0 | 0.0 | 0.00 | 0.00 | 0.00 | 91 | 1019.7 |
| 20260507180051 | 55 | 277 | 0.0 | 0.0 | 0.00 | 0.00 | 0.00 | 90 | 1019.6 |
| 20260507174557 | 55 | 275 | 0.0 | 0.0 | 0.00 | 0.00 | 0.00 | 90 | 1019.5 |
| 20260507173119 | 55 | 286 | 0.0 | 0.0 | 0.00 | 0.00 | 0.00 | 89 | 1019.5 |
| 20260507171554 | 55 | 250 | 0.0 | 0.0 | 0.00 | 0.00 | 0.00 | 89 | 1019.2 |